Regional Weather Roundup
Issued by NWS

Home | Current Version | Previous Version | Text Only | Print | Product List | Glossary On
Versions: 1 2 3 4 5 6 7 8 9 10 11 12 13 14 15 16 17 18 19 20 21 22 23 24 25 26 27 28 29 30 31 32 33 34 35 36 37 38 39 40 41 42 43 44 45 46 47 48 49 50
000
ASUS43 KLMK 241810
RWRKY
KENTUCKY REGIONAL WEATHER ROUNDUP
NATIONAL WEATHER SERVICE LOUISVILLE KY
200 PM EDT TUE MAY 24 2016

NOTE "FAIR" INDICATES FEW OR NO CLOUDS BELOW 12,000 FEET
WITH NO SIGNIFICANT WEATHER AND/OR OBSTRUCTIONS TO VISIBILITY.

KYZ001>023-026-027-061>063-070>075-241900-
WESTERN AND SOUTH CENTRAL KENTUCKY

CITY           SKY/WX    TMP DP  RH WIND       PRES   REMARKS
PADUCAH        CLOUDY    82  62  50 SE7       30.04F
HENDERSON      CLOUDY    81  57  44 S12       30.07F
OWENSBORO      MOSUNNY   83  59  44 S10       30.09F
HOPKINSVILLE   MOSUNNY   81  60  48 S8        30.09F
BOWLING GREEN  SUNNY     83  53  35 S6        30.11F
GLASGOW        SUNNY     82  53  37 SW7       30.12F
$$

KYZ024-025-028>034-038-045-046-053-241900-
NORTH CENTRAL KENTUCKY

CITY           SKY/WX    TMP DP  RH WIND       PRES   REMARKS
LOUISVILLE/SDF PTSUNNY   82  51  34 SW8       30.10F
LOUISVILLE/LOU SUNNY     80  49  33 VRB3      30.11S
FORT KNOX      MOSUNNY   80  53  39 SW7       30.09F
$$

KYZ035>037-039>044-047>052-055>060-089>105-241900-
NORTHEAST KENTUCKY

CITY           SKY/WX    TMP DP  RH WIND       PRES   REMARKS
LEXINGTON      SUNNY     78  47  33 CALM      30.14S
COVINGTON      PTSUNNY   78  48  34 S8        30.11F
FRANKFORT      SUNNY     80  44  27 VRB6      30.12S
$$

KYZ054-064>069-076>088-106>120-241900-
SOUTHEAST KENTUCKY

CITY           SKY/WX    TMP DP  RH WIND       PRES   REMARKS
JACKSON        SUNNY     77  50  38 VRB5      30.15F
LONDON         SUNNY     77  44  30 SW9       30.15F
SOMERSET       SUNNY     75  45  33 SW5       30.15F
MIDDLESBORO    MOSUNNY   77  53  41 S6        30.15F
MONTICELLO     CLEAR     78  51  38 W8        30.17S
$$




USA.gov is the U.S. government's official web portal to all federal, state and local government web resources and services.